This is the latest recevied weather packets stored in our database for station/object K5KHP. If no packets are shown the sender has not sent any weather packets the latest 10 day(s).
| Time | Temp. | Humidity | Pressure | Rain* | Wind** | Luminosity | Snow |
|---|---|---|---|---|---|---|---|
| 1778025302 | 17.22° C | 73% | 1013.4 hPa | 0 mm | - | 126 W/m² | - |
| 1778024998 | 17.78° C | 74% | 1013.4 hPa | 0 mm | - | 130 W/m² | - |
| 1778024696 | 18.33° C | 73% | 1013.1 hPa | 0 mm | - | 123 W/m² | - |
| 1778024393 | 18.33° C | 70% | 1013.3 hPa | 0 mm | - | 123 W/m² | - |
| 1778024090 | 18.33° C | 69% | 1013.3 hPa | 0 mm | - | 127 W/m² | - |
| 1778023787 | 18.89° C | 68% | 1013.2 hPa | 0 mm | - | 141 W/m² | - |
| 1778023486 | 18.89° C | 67% | 1013.3 hPa | 0 mm | - | 157 W/m² | - |
| 1778023182 | 18.89° C | 68% | 1013.3 hPa | 0 mm | - | 177 W/m² | - |
| 1778022879 | 19.44° C | 66% | 1013.1 hPa | 0 mm | - | 223 W/m² | - |
| 1778022577 | 19.44° C | 66% | 1013.4 hPa | 0 mm | - | 472 W/m² | - |
| 1778022275 | 19.44° C | 64% | 1013.2 hPa | 0 mm | - | 490 W/m² | - |
| 1778021971 | 18.89° C | 66% | 1013.1 hPa | 0 mm | - | 452 W/m² | - |
| 1778021668 | 18.89° C | 67% | 1013.4 hPa | 0 mm | - | 474 W/m² | - |
| 1778021364 | 18.89° C | 67% | 1013.5 hPa | 0 mm | - | 293 W/m² | - |
| 1778021061 | 18.89° C | 67% | 1013.3 hPa | 0 mm | - | 379 W/m² | - |
| 1778020758 | 18.33° C | 68% | 1013.2 hPa | 0 mm | - | 253 W/m² | - |
| 1778020455 | 18.89° C | 68% | 1013.4 hPa | 0 mm | - | 253 W/m² | - |
| 1778020151 | 18.33° C | 67% | 1013.6 hPa | 0 mm | - | 256 W/m² | - |
| 1778019848 | 18.89° C | 65% | 1013.4 hPa | 0 mm | - | 296 W/m² | - |
| 1778019544 | 18.89° C | 65% | 1013.7 hPa | 0 mm | - | 271 W/m² | - |
| 1778019241 | 18.89° C | 63% | 1013.5 hPa | 0 mm | - | 269 W/m² | - |
| 1778018938 | 18.89° C | 62% | 1013.5 hPa | 0 mm | - | 229 W/m² | - |
| 1778018635 | 18.33° C | 63% | 1013.6 hPa | 0 mm | - | 196 W/m² | - |
| 1778018333 | 18.33° C | 60% | 1013.8 hPa | 0 mm | - | 201 W/m² | - |
| 1778018031 | 18.33° C | 63% | 1014 hPa | 0 mm | - | 217 W/m² | - |
* Rain latest hour (hover to see other rain measurements)
** Current wind speed in m/s (hover to see current wind gust speed)